BTI36D EVRA-EETN

Flight info

Callsign BTI36D
Flight time 0h 30m
Altitude 27000
Route SOKVA DCT ANAMA DCT KEMET
Aircraft A319/M-SDE3FGHIRWY/LB1

Departure

Time 2026-05-05 18:14
Airport Riga International Airport (EVRA)

Arrival

Time 2026-05-05 18:45
Airport Lennart Meri Tallinn Airport (EETN)
Time Latitude Longitude Altitude Speed Heading
2026-05-05 17:54 56.92547 23.97726 45 ft 0 kts 186°
2026-05-05 18:08 56.92553 23.97728 44 ft 4 kts 186°
2026-05-05 18:08 56.92580 23.97734 44 ft 4 kts 189°
2026-05-05 18:08 56.92606 23.97743 40 ft 4 kts 192°
2026-05-05 18:09 56.92633 23.97753 41 ft 4 kts 190°
2026-05-05 18:09 56.92649 23.97758 42 ft 0 kts 185°
2026-05-05 18:11 56.92645 23.97757 42 ft 3 kts 185°
2026-05-05 18:11 56.92611 23.97732 42 ft 9 kts 226°
2026-05-05 18:12 56.92607 23.97588 44 ft 12 kts 258°
2026-05-05 18:12 56.92528 23.97538 44 ft 13 kts 184°
2026-05-05 18:12 56.92411 23.97516 44 ft 22 kts 187°
2026-05-05 18:12 56.92227 23.97478 44 ft 28 kts 185°
2026-05-05 18:13 56.92027 23.97448 44 ft 29 kts 185°
2026-05-05 18:13 56.91822 23.97421 44 ft 28 kts 184°
2026-05-05 18:13 56.91716 23.97364 43 ft 13 kts 242°
2026-05-05 18:13 56.91719 23.97191 45 ft 14 kts 274°
2026-05-05 18:14 56.91751 23.97019 43 ft 14 kts 342°
2026-05-05 18:14 56.91925 23.97043 44 ft 55 kts
2026-05-05 18:14 56.92593 23.97152 48 ft 134 kts
2026-05-05 18:14 56.93575 23.97319 638 ft 142 kts
2026-05-05 18:15 56.94562 23.97464 1449 ft 145 kts
2026-05-05 18:15 56.95637 23.97625 1996 ft 166 kts
2026-05-05 18:15 56.96875 23.97812 2516 ft 191 kts
2026-05-05 18:15 56.98286 23.98030 3139 ft 216 kts
2026-05-05 18:16 56.99867 23.98288 3789 ft 241 kts
2026-05-05 18:16 57.01625 23.98582 4481 ft 266 kts
2026-05-05 18:16 57.03557 23.98903 5138 ft 291 kts
2026-05-05 18:16 57.05637 23.99253 5979 ft 307 kts
2026-05-05 18:17 57.07784 23.99971 6952 ft 319 kts 12°
2026-05-05 18:17 57.09936 24.01126 7963 ft 326 kts 12°
2026-05-05 18:17 57.12137 24.02310 8994 ft 332 kts 12°
2026-05-05 18:17 57.14375 24.03514 9989 ft 339 kts 11°
2026-05-05 18:18 57.16636 24.04636 10896 ft 342 kts
2026-05-05 18:18 57.18977 24.05528 11861 ft 345 kts
2026-05-05 18:18 57.21352 24.06343 12829 ft 349 kts
2026-05-05 18:18 57.23762 24.07127 13756 ft 353 kts
2026-05-05 18:19 57.26199 24.07909 14554 ft 358 kts
2026-05-05 18:19 57.28677 24.08717 15350 ft 364 kts
2026-05-05 18:19 57.31198 24.09552 16107 ft 370 kts
2026-05-05 18:19 57.33751 24.10414 16867 ft 376 kts
2026-05-05 18:20 57.36342 24.11298 17626 ft 381 kts
2026-05-05 18:20 57.38972 24.12199 18350 ft 387 kts
2026-05-05 18:20 57.41636 24.13113 19019 ft 392 kts
2026-05-05 18:20 57.44332 24.14039 19694 ft 396 kts
2026-05-05 18:21 57.47032 24.14967 20362 ft 401 kts
2026-05-05 18:21 57.49784 24.15915 21029 ft 405 kts
2026-05-05 18:21 57.52579 24.16878 21698 ft 410 kts
2026-05-05 18:21 57.55400 24.17850 22393 ft 415 kts
2026-05-05 18:22 57.58256 24.18835 23078 ft 419 kts
2026-05-05 18:22 57.61140 24.19836 23693 ft 423 kts
2026-05-05 18:22 57.64041 24.20843 24250 ft 427 kts
2026-05-05 18:22 57.66937 24.21853 24792 ft 430 kts
2026-05-05 18:23 57.69898 24.22888 25339 ft 434 kts
2026-05-05 18:23 57.72875 24.23927 25869 ft 437 kts
2026-05-05 18:23 57.75875 24.24973 26397 ft 440 kts
2026-05-05 18:23 57.78898 24.26029 26781 ft 443 kts
2026-05-05 18:24 57.81928 24.27097 26878 ft 437 kts
2026-05-05 18:24 57.84855 24.28151 26895 ft 420 kts
2026-05-05 18:24 57.87683 24.29172 26881 ft 410 kts
2026-05-05 18:24 57.90482 24.30162 26883 ft 407 kts
2026-05-05 18:25 57.93248 24.31431 26886 ft 414 kts 10°
2026-05-05 18:25 57.95066 24.32549 26876 ft 414 kts 10°
2026-05-05 18:25 57.98722 24.34856 26876 ft 415 kts 11°
2026-05-05 18:25 58.01464 24.36619 26876 ft 415 kts 11°
2026-05-05 18:26 58.04188 24.38379 26877 ft 415 kts 11°
2026-05-05 18:26 58.06922 24.40146 26870 ft 415 kts 11°
2026-05-05 18:26 58.09622 24.41884 26736 ft 415 kts 11°
2026-05-05 18:26 58.12358 24.43638 26515 ft 416 kts 11°
2026-05-05 18:27 58.15101 24.45391 26257 ft 416 kts 11°
2026-05-05 18:27 58.17846 24.47148 25998 ft 416 kts 11°
2026-05-05 18:27 58.20589 24.48913 25746 ft 415 kts 11°
2026-05-05 18:27 58.23330 24.50679 25496 ft 414 kts 11°
2026-05-05 18:28 58.28766 24.54196 25003 ft 411 kts 11°
2026-05-05 18:28 58.31437 24.55930 24758 ft 410 kts 11°
2026-05-05 18:28 58.34125 24.57675 24507 ft 408 kts 11°
2026-05-05 18:29 58.36799 24.59415 24115 ft 405 kts 10°
2026-05-05 18:29 58.39470 24.61153 23596 ft 406 kts 10°
2026-05-05 18:29 58.42148 24.62898 22991 ft 406 kts 10°
2026-05-05 18:29 58.44816 24.64643 22461 ft 403 kts 10°
2026-05-05 18:30 58.47467 24.66381 21934 ft 401 kts 10°
2026-05-05 18:30 58.50104 24.68108 21409 ft 399 kts 11°
2026-05-05 18:30 58.52694 24.69807 20900 ft 397 kts 11°
2026-05-05 18:30 58.55301 24.71518 20389 ft 395 kts 11°
2026-05-05 18:31 58.57906 24.73229 19879 ft 393 kts 11°
2026-05-05 18:31 58.60499 24.74942 19369 ft 392 kts 11°
2026-05-05 18:31 58.63073 24.76645 18871 ft 390 kts 11°
2026-05-05 18:31 58.65606 24.78323 18390 ft 389 kts 11°
2026-05-05 18:32 58.68167 24.80024 17848 ft 388 kts 11°
2026-05-05 18:32 58.70715 24.81718 17344 ft 385 kts 11°
2026-05-05 18:32 58.73244 24.83399 16864 ft 381 kts 11°
2026-05-05 18:32 58.75715 24.85046 16394 ft 379 kts 11°
2026-05-05 18:33 58.78199 24.86707 15928 ft 376 kts 12°
2026-05-05 18:33 58.80660 24.88354 15467 ft 373 kts 12°
2026-05-05 18:33 58.83109 24.89989 15012 ft 371 kts 12°
2026-05-05 18:33 58.85544 24.91615 14560 ft 368 kts 12°
2026-05-05 18:34 58.87956 24.93230 14121 ft 366 kts 12°
2026-05-05 18:34 58.90352 24.94833 13729 ft 362 kts 12°
2026-05-05 18:34 58.92724 24.96426 13314 ft 359 kts 12°
2026-05-05 18:34 58.95070 24.98003 12770 ft 365 kts 12°
2026-05-05 18:35 58.97510 24.99629 12292 ft 374 kts 12°
2026-05-05 18:35 58.99971 25.01280 11813 ft 373 kts 13°
2026-05-05 18:35 59.02419 25.02939 11318 ft 371 kts 13°
2026-05-05 18:35 59.04848 25.04595 10829 ft 369 kts 13°
2026-05-05 18:36 59.07264 25.06253 10319 ft 366 kts 13°
2026-05-05 18:36 59.09658 25.07894 9833 ft 364 kts 13°
2026-05-05 18:36 59.12035 25.09518 9290 ft 360 kts 14°
2026-05-05 18:36 59.14404 25.11130 8769 ft 363 kts 14°
2026-05-05 18:37 59.16758 25.12730 8241 ft 360 kts 14°
2026-05-05 18:37 59.19108 25.14335 7787 ft 352 kts 14°
2026-05-05 18:37 59.21357 25.15887 7674 ft 333 kts 15°
2026-05-05 18:37 59.23492 25.17365 7426 ft 319 kts 14°
2026-05-05 18:38 59.25560 25.18787 6835 ft 310 kts 15°
2026-05-05 18:38 59.27544 25.20148 6322 ft 298 kts 15°
2026-05-05 18:38 59.29447 25.21458 6195 ft 280 kts 15°
2026-05-05 18:38 59.31236 25.22614 5842 ft 264 kts
2026-05-05 18:39 59.33034 25.22680 5109 ft 255 kts 345°
2026-05-05 18:39 59.34693 25.21580 4407 ft 250 kts 335°
2026-05-05 18:39 59.36283 25.20336 3745 ft 246 kts 335°
2026-05-05 18:39 59.37838 25.19113 3459 ft 233 kts 335°
2026-05-05 18:40 59.39247 25.17794 3268 ft 215 kts 322°
2026-05-05 18:40 59.40292 25.15860 3092 ft 199 kts 305°
2026-05-05 18:40 59.40941 25.13550 2896 ft 189 kts 289°
2026-05-05 18:40 59.41205 25.11098 2674 ft 183 kts 274°
2026-05-05 18:41 59.41220 25.08643 2442 ft 175 kts 272°
2026-05-05 18:41 59.41232 25.06339 2211 ft 163 kts 272°
2026-05-05 18:41 59.41243 25.04176 1981 ft 151 kts 272°
2026-05-05 18:41 59.41252 25.02196 1780 ft 139 kts 273°
2026-05-05 18:42 59.41261 25.00390 1596 ft 129 kts 272°
2026-05-05 18:42 59.41270 24.98676 1387 ft 123 kts 272°
2026-05-05 18:42 59.41276 24.97019 1211 ft 120 kts 272°
2026-05-05 18:42 59.41291 24.95371 1043 ft 121 kts 272°
2026-05-05 18:43 59.41296 24.93750 893 ft 120 kts 269°
2026-05-05 18:43 59.41295 24.92114 741 ft 119 kts 271°
2026-05-05 18:43 59.41309 24.90484 573 ft 118 kts 269°
2026-05-05 18:43 59.41312 24.88872 397 ft 118 kts 269°
2026-05-05 18:44 59.41315 24.87266 258 ft 118 kts 269°
2026-05-05 18:44 59.41319 24.85708 165 ft 108 kts 270°
2026-05-05 18:44 59.41320 24.84469 160 ft 77 kts 270°
2026-05-05 18:44 59.41325 24.83547 164 ft 62 kts 270°
2026-05-05 18:45 59.41325 24.82730 161 ft 58 kts 270°
2026-05-05 18:45 59.41328 24.81970 163 ft 53 kts 270°
2026-05-05 18:45 59.41329 24.81325 163 ft 45 kts 270°
2026-05-05 18:45 59.41331 24.80813 161 ft 19 kts 270°
2026-05-05 18:46 59.41380 24.80584 161 ft 19 kts 314°
2026-05-05 18:46 59.41451 24.80475 162 ft 10 kts 339°
2026-05-05 18:46 59.41524 24.80498 162 ft 12 kts 15°
2026-05-05 18:46 59.41609 24.80512 162 ft 14 kts 359°
2026-05-05 18:47 59.41705 24.80490 162 ft 13 kts 333°
2026-05-05 18:47 59.41741 24.80356 162 ft 11 kts 280°
2026-05-05 18:47 59.41749 24.80193 162 ft 10 kts 271°
2026-05-05 18:47 59.41737 24.80122 162 ft 6 kts 207°
2026-05-05 18:48 59.41694 24.80122 162 ft 1 kts 181°
2026-05-05 18:48 59.41690 24.80122 162 ft 0 kts 181°